Tracking 17844 objects as of 24-August-2016
HD Live streaming from Space Station
objects crossing your sky now

ARIANE 44LP DEB

Track ARIANE 44LP DEB now!
10-day predictions


NORAD ID: 27662
Int'l Code: 1991-015N
Perigee: 429.6 km
Apogee: 24,067.0 km
Inclination: 6.0 °
Period: 421.4 minutes
Semi major axis: 18619 km
RCS: 0.2322 m2 (medium)
Launch date: March 2, 1991
Source: France (FR)
Launch site: FRENCH GUIANA (FRGUI)

Note: This is SATELLITE DEBRIS
Your satellite tracking list
Your tracking list is empty





NASA's NSSDC Master Catalog

Two Line Element Set (TLE):
1 27662U 91015N   16237.41746594  .00000681  00000-0  10994-2 0  9998
2 27662   6.0034   0.4967 6347533 355.4528   0.7246  3.41709963202372
Source of the keplerian elements: AFSPC

N2YO: 487